TimeMDT,TemperatureF,Dew PointF,Humidity,Sea Level PressureIn,VisibilityMPH,Wind Direction,Wind SpeedMPH,Gust SpeedMPH,PrecipitationIn,Events,Conditions,WindDirDegrees,DateUTC
12:15 AM,28.0,12.9,53,30.27,10.0,Calm,Calm,-,N/A,,Clear,0,2013-03-20 06:15:00
12:35 AM,28.0,12.4,52,30.27,10.0,South,6.9,-,N/A,,Clear,170,2013-03-20 06:35:00
12:55 AM,24.6,15.3,68,30.28,10.0,SSE,6.9,-,N/A,,Clear,150,2013-03-20 06:55:00
1:15 AM,26.2,13.3,58,30.28,10.0,South,5.8,-,N/A,,Clear,180,2013-03-20 07:15:00
1:35 AM,23.2,14.5,70,30.28,10.0,Calm,Calm,-,N/A,,Clear,0,2013-03-20 07:35:00
1:55 AM,23.5,14.9,70,30.29,10.0,South,4.6,-,N/A,,Clear,180,2013-03-20 07:55:00
2:15 AM,21.6,15.3,77,30.28,10.0,Calm,Calm,-,N/A,,Clear,0,2013-03-20 08:15:00
2:35 AM,21.7,15.6,77,30.28,10.0,Calm,Calm,-,N/A,,Clear,0,2013-03-20 08:35:00
2:55 AM,21.6,15.4,77,30.28,10.0,Calm,Calm,-,N/A,,Clear,0,2013-03-20 08:55:00
3:15 AM,19.8,16.5,87,30.28,10.0,Calm,Calm,-,N/A,,Clear,0,2013-03-20 09:15:00
3:35 AM,19.2,15.6,86,30.27,10.0,Calm,Calm,-,N/A,,Clear,0,2013-03-20 09:35:00
3:55 AM,20.1,14.9,80,30.27,10.0,Calm,Calm,-,N/A,,Clear,0,2013-03-20 09:55:00
4:15 AM,19.9,14.9,81,30.27,10.0,Calm,Calm,-,N/A,,Clear,0,2013-03-20 10:15:00
4:35 AM,18.5,15.4,88,30.26,10.0,Calm,Calm,-,N/A,,Clear,0,2013-03-20 10:35:00
4:55 AM,19.4,15.1,83,30.27,10.0,Calm,Calm,-,N/A,,Clear,0,2013-03-20 10:55:00
5:15 AM,18.1,15.1,88,30.27,10.0,Calm,Calm,-,N/A,,Clear,0,2013-03-20 11:15:00
5:35 AM,17.4,14.4,88,30.26,10.0,Calm,Calm,-,N/A,,Clear,0,2013-03-20 11:35:00
5:55 AM,17.4,14.9,90,30.26,10.0,Calm,Calm,-,N/A,,Clear,0,2013-03-20 11:55:00
6:15 AM,16.7,13.8,88,30.27,10.0,Calm,Calm,-,N/A,,Clear,0,2013-03-20 12:15:00
6:35 AM,15.8,13.3,90,30.27,10.0,Calm,Calm,-,N/A,,Clear,0,2013-03-20 12:35:00
6:55 AM,16.5,13.6,88,30.27,10.0,Calm,Calm,-,N/A,,Clear,0,2013-03-20 12:55:00
7:15 AM,16.3,13.8,90,30.27,10.0,Calm,Calm,-,N/A,,Clear,0,2013-03-20 13:15:00
7:35 AM,18.1,14.9,87,30.27,10.0,Calm,Calm,-,N/A,,Clear,0,2013-03-20 13:35:00
7:55 AM,19.9,15.6,83,30.26,10.0,Calm,Calm,-,N/A,,Clear,0,2013-03-20 13:55:00
8:15 AM,22.5,16.9,79,30.26,10.0,Calm,Calm,-,N/A,,Clear,0,2013-03-20 14:15:00
8:35 AM,25.7,19.2,76,30.25,10.0,Calm,Calm,-,N/A,,Clear,0,2013-03-20 14:35:00
8:55 AM,29.8,21.9,72,30.26,10.0,Calm,Calm,-,N/A,,Clear,0,2013-03-20 14:55:00
9:15 AM,33.6,18.7,54,30.26,10.0,Calm,Calm,-,N/A,,Clear,0,2013-03-20 15:15:00
9:55 AM,37.0,15.6,42,30.25,10.0,WNW,3.5,-,N/A,,Clear,300,2013-03-20 15:55:00
10:15 AM,39.4,14.4,36,30.25,10.0,West,6.9,-,N/A,,Clear,260,2013-03-20 16:15:00
10:35 AM,40.1,14.2,35,30.24,10.0,West,8.1,16.1,N/A,,Clear,270,2013-03-20 16:35:00
10:55 AM,41.7,15.1,34,30.23,10.0,WSW,9.2,-,N/A,,Clear,240,2013-03-20 16:55:00
11:35 AM,42.8,14.5,32,30.21,10.0,West,12.7,17.3,N/A,,Clear,260,2013-03-20 17:35:00
11:55 AM,43.3,14.7,32,30.20,10.0,WSW,9.2,17.3,N/A,,Clear,250,2013-03-20 17:55:00
12:15 PM,44.4,15.6,31,30.20,10.0,WSW,15.0,29.9,N/A,,Clear,250,2013-03-20 18:15:00
12:35 PM,44.6,16.0,32,30.19,10.0,WSW,9.2,20.7,N/A,,Clear,240,2013-03-20 18:35:00
12:55 PM,44.6,16.2,32,30.18,10.0,West,16.1,25.3,N/A,,Clear,260,2013-03-20 18:55:00
1:15 PM,45.1,16.2,31,30.16,10.0,West,9.2,20.7,N/A,,Clear,260,2013-03-20 19:15:00
1:35 PM,46.0,16.5,31,30.14,10.0,WSW,9.2,19.6,N/A,,Clear,250,2013-03-20 19:35:00
1:55 PM,46.0,16.2,30,30.13,10.0,WSW,13.8,25.3,N/A,,Clear,250,2013-03-20 19:55:00
2:15 PM,48.2,18.0,30,30.11,10.0,West,11.5,26.5,N/A,,Clear,260,2013-03-20 20:15:00
2:35 PM,48.4,16.2,28,30.10,10.0,West,17.3,27.6,N/A,,Clear,260,2013-03-20 20:35:00
2:55 PM,48.0,16.5,29,30.09,10.0,WSW,25.3,29.9,N/A,,Clear,240,2013-03-20 20:55:00
3:15 PM,47.5,17.6,30,30.07,10.0,WSW,19.6,27.6,N/A,,Clear,240,2013-03-20 21:15:00
3:35 PM,48.9,17.8,29,30.06,10.0,West,23.0,28.8,N/A,,Clear,260,2013-03-20 21:35:00
3:55 PM,48.4,17.2,29,30.05,10.0,WSW,11.5,27.6,N/A,,Clear,250,2013-03-20 21:55:00
4:15 PM,47.5,16.3,29,30.04,10.0,West,10.4,29.9,N/A,,Clear,260,2013-03-20 22:15:00
4:35 PM,47.7,16.9,29,30.04,10.0,West,10.4,27.6,N/A,,Clear,270,2013-03-20 22:35:00
4:55 PM,47.5,18.1,31,30.04,10.0,WSW,23.0,31.1,N/A,,Clear,250,2013-03-20 22:55:00
5:15 PM,46.6,18.7,33,30.03,10.0,West,17.3,29.9,N/A,,Scattered Clouds,260,2013-03-20 23:15:00
5:35 PM,46.2,18.3,33,30.02,10.0,West,15.0,24.2,N/A,,Scattered Clouds,260,2013-03-20 23:35:00
5:55 PM,45.7,18.9,34,30.01,10.0,WSW,9.2,31.1,N/A,,Clear,250,2013-03-20 23:55:00
6:15 PM,45.1,18.0,34,30.01,10.0,WSW,15.0,29.9,N/A,,Clear,250,2013-03-21 00:15:00
6:35 PM,44.6,18.5,35,30.01,10.0,WSW,15.0,20.7,N/A,,Clear,250,2013-03-21 00:35:00
6:55 PM,44.1,19.4,37,30.00,10.0,West,13.8,27.6,N/A,,Clear,260,2013-03-21 00:55:00
7:15 PM,43.7,19.4,38,29.99,10.0,West,11.5,24.2,N/A,,Clear,260,2013-03-21 01:15:00
7:35 PM,43.2,20.3,40,29.98,10.0,West,10.4,24.2,N/A,,Clear,270,2013-03-21 01:35:00
7:55 PM,43.2,20.3,40,29.98,10.0,West,28.8,36.8,N/A,,Clear,270,2013-03-21 01:55:00
8:15 PM,43.0,21.2,42,29.97,10.0,West,20.7,41.4,N/A,,Clear,270,2013-03-21 02:15:00
8:35 PM,43.0,21.0,42,29.97,10.0,West,26.5,34.5,N/A,,Clear,270,2013-03-21 02:35:00
8:55 PM,42.8,21.2,42,29.98,10.0,West,15.0,26.5,N/A,,Clear,260,2013-03-21 02:55:00
9:15 PM,42.8,22.5,45,29.97,10.0,WSW,16.1,36.8,N/A,,Clear,240,2013-03-21 03:15:00
9:35 PM,42.1,22.8,46,29.97,10.0,West,5.8,27.6,N/A,,Clear,260,2013-03-21 03:35:00
9:55 PM,41.9,23.5,48,29.97,10.0,WSW,15.0,29.9,N/A,,Clear,240,2013-03-21 03:55:00
10:15 PM,41.5,23.7,49,29.97,10.0,West,9.2,23.0,N/A,,Clear,260,2013-03-21 04:15:00
10:35 PM,41.0,23.5,50,29.97,10.0,West,8.1,18.4,N/A,,Clear,260,2013-03-21 04:35:00
10:55 PM,41.0,23.5,50,29.97,10.0,West,10.4,20.7,N/A,,Clear,280,2013-03-21 04:55:00
11:15 PM,40.6,23.4,50,29.96,10.0,West,9.2,-,N/A,,Clear,260,2013-03-21 05:15:00
11:35 PM,40.5,22.6,49,29.95,10.0,West,6.9,21.9,N/A,,Clear,260,2013-03-21 05:35:00